星链-31621 (STARLINK-31621 )

导读

STARLINK-31621是美国星链计划中的一颗卫星,于2024年4月10日发射入轨,隶属于SpaceX打造的星链卫星互联网星座。星链系统旨在为全球用户提供低延迟、高速率的宽带互联网服务,该卫星的成功发射进一步扩充了星链星座的在轨规模,推进了全球覆盖组网进程。

Basic Information
目录编号:
59465
目录名称:
STARLINK-31621
国际标识:
2024-068L
轨道中心:
EARTH
卫星名称:
星链-31621
卫星全名:
星链-31621 (STARLINK-31621 )
卫星状态:
在轨 (已飞行795 天)
发射日期:
2024-04-10 UTC
国别 :
美国 (US)
星等 :
--
Orbit Information
数据来源 国际轨道数据 AOE轨道数据
星历时间 2026-06-14T03:43:54+0800
17小时前
查看轨道信息
2026-06-11T12:00:00+0800
3天前
查看轨道信息
半长轴 6861.199km 6861.193km
偏心率 0.0001133 0.0001127
轨道倾角 43.003° 42.997°
近地点辐角 291.648° 261.049°
升交点赤经 211.732° 226.731°
平近点角 68.425° 238.694°
近地点 482.284km 482.282km
远地点 483.84km 483.83km
周期 94.267分钟 94.267分钟
每日圈数 15.27576 15.275777
Detailed Information
固有亮度:
5
最大亮度:
1.5
卫星平台:
Starlink v2.0 mini
覆盖范围:
全球
运营商:
太空探索技术公司
运营商所在国:
美国
制造商(研发单位):
太空探索技术公司
制造商所在国:
美国
使用方式:
暂无
Satellite Introduction
星链(Starlink)计划是由太空探索技术公司(SpaceX)提出的一个巨型低轨卫星互联网星座项目,计划在2019年至2024年间在太空搭建由约1.2万颗卫星组成的“星链”网络,其中1584颗将部署在地球上空550千米处的近地轨道,并从2020年开始工作。该卫星仍在工作。
2D Orbit Map
3D Orbit Map
Orbit Altitude Analysis Chart
Orbit Inclination Analysis Chart
Orbit Comprehensive Analysis Chart
View Comprehensive Chart